Location: D.A.R.C. Observatory
(36.7133°N, 120.8553°W)
Time: 02:45:28
(UTC-07:00)

Daily predictions for brighter satellites

Satellite Brightness Start Highest point End
(mag) Time Altitude Azimuth Time Altitude Azimuth Time Altitude Azimuth
Cosmos 2369 Rocket 3.4 00:19:21 35° WNW 00:19:23 35° WNW 00:24:30 10° N
Cosmos 2219 4.5 00:34:13 10° N 00:38:07 35° NNE 00:38:07 35° NNE
Cosmos 1943 Rocket 3.3 00:44:41 40° NNW 00:44:41 40° NNW 00:48:33 10° NNE
ATLAS 3B CENTAUR R/B 4.4 01:04:39 53° SE 01:04:39 53° SE 01:25:50 10° E
ATLAS 2AS CENTAUR R/B 3.2 01:02:18 10° NW 01:09:11 64° WNW 01:09:11 64° WNW
CZ-3B DEB 4.5 00:50:49 10° NW 01:24:28 69° WSW 01:27:58 58° S
ATLAS CENTAUR R/B 4.0 01:39:24 20° NE 01:39:24 20° NE 01:41:02 10° NE
SeaSat 1 4.2 01:51:33 28° NE 01:51:33 28° NE 01:55:26 10° N
CZ-2C R/B 4.2 01:57:00 10° N 02:00:12 28° NW 02:00:12 28° NW
Cosmos 1697 Rocket 4.3 02:03:35 26° ENE 02:03:35 26° ENE 02:07:00 10° NE
Cosmos 1980 Rocket 4.1 02:13:01 20° E 02:13:01 20° E 02:16:20 10° NE
Cosmos 2082 4.4 02:08:42 10° NNW 02:12:57 49° N 02:12:57 49° N
Cosmos 2227 Rocket 2.9 02:16:21 10° NNW 02:20:25 48° NNW 02:20:25 48° NNW
NPP 4.4 02:26:41 10° NNE 02:31:02 48° ENE 02:31:02 48° ENE
NOSS 3-4 (A) 4.2 02:26:37 10° NNW 02:33:35 61° NE 02:36:54 34° ESE
NOSS 3-4 (C) 4.2 02:26:42 10° NNW 02:33:41 60° NE 02:37:09 32° ESE
Cosmos 1763 Rocket 4.4 02:39:26 44° ENE 02:39:26 44° ENE 02:43:24 10° NNE
Cosmos 1898 Rocket 4.3 02:34:03 10° NNW 02:37:46 46° NNW 02:37:46 46° NNW
Cosmos 2297 Rocket 2.6 02:37:05 10° NNW 02:41:32 57° NNW 02:41:32 57° NNW
Cosmos 1937 Rocket 4.1 02:40:33 10° NNW 02:44:37 53° N 02:44:37 53° N
Cosmos 1464 Rocket 4.0 02:52:02 69° WNW 02:52:02 69° WNW 02:58:01 10° N
ERS-2 4.5 02:49:28 10° NNE 02:51:11 22° NE 02:51:11 22° NE
Meteor 2-5 Rocket 4.0 02:55:05 10° NNW 03:00:16 64° NW 03:00:16 64° NW
SL-16 R/B 4.1 03:00:26 18° ESE 03:01:51 19° E 03:05:47 10° NE
Cosmos 1656 4.1 03:06:53 53° NW 03:06:53 53° NW 03:12:04 10° NNE
ARIANE 5 R/B 3.4 03:04:30 10° NNE 03:09:21 40° E 03:09:53 39° ESE
Cosmos-2242 4.4 03:10:11 33° E 03:10:11 33° E 03:13:49 10° NNE
IRS-1C 4.0 03:09:23 10° NNE 03:14:37 85° NNW 03:14:37 85° NNW
AQUA 4.3 03:10:17 10° N 03:14:10 55° NNW 03:14:10 55° NNW
ATLAS CENTAUR R/B 3.3 03:15:43 26° NW 03:15:43 26° NW 03:19:47 10° N
CZ-2D R/B 3.3 03:11:12 10° NNE 03:16:10 35° E 03:17:32 31° SE
Cosmos 1441 Rocket 4.3 03:18:51 10° N 03:21:50 45° NNE 03:21:50 45° NNE
Cosmos 1408 Rocket 3.8 03:23:05 10° N 03:27:04 67° NE 03:27:04 67° NE
SeaSat 1 4.2 03:31:20 20° WNW 03:31:20 20° WNW 03:33:08 10° NW
Meteor 1-24 Rocket 3.7 03:24:39 10° NNW 03:30:26 69° W 03:30:48 67° WSW
SME Rocket 4.5 03:27:55 30° SSE 03:31:09 73° ENE 03:39:58 10° N
Okean O Rocket 4.2 03:29:13 10° ENE 03:31:49 15° E 03:34:22 10° SE
BREEZE-M DEB (TANK) 4.4 03:31:23 15° NNW 03:32:09 17° N 03:34:25 10° NE
ADEOS 3.4 03:27:38 10° N 03:32:50 73° WNW 03:33:03 72° W
Meteor 1-22 Rocket 4.4 03:32:41 58° WSW 03:33:15 61° W 03:39:19 10° N
Cosmos 1805 3.9 03:34:15 52° ENE 03:34:15 52° ENE 03:37:39 10° NNE
Cosmos 1766 Rocket 3.6 03:29:40 10° N 03:33:50 76° NNE 03:33:50 76° NNE
Spot 4 Rocket 3.9 03:29:40 10° N 03:34:51 79° WNW 03:35:09 75° WSW
IRAS Rocket 4.5 03:31:39 10° N 03:37:06 52° WNW 03:37:35 51° W
Cosmos 1461 4.2 03:35:06 10° NNW 03:38:58 38° NE 03:42:40 10° SE
In-Cosmos 22 4.3 03:34:55 10° N 03:40:11 66° E 03:42:23 35° SSE
Cosmos 371 Rocket 4.4 03:39:38 32° SE 03:40:53 38° ESE 03:45:19 10° NE
IRS-1D 3.4 03:38:50 10° NNE 03:43:49 81° ESE 03:44:41 62° S
Resurs 1-4 Rocket 2.2 03:39:24 10° NNE 03:44:40 68° ESE 03:46:07 46° SSE
Cosmos 1697 Rocket 3.5 03:45:20 33° WNW 03:45:59 34° WNW 03:51:08 10° N
Cosmos 1758 3.4 03:50:28 71° NNW 03:50:28 71° NNW 03:54:08 10° N
Milstar 3 Cent rocket 2.9 03:50:48 34° SSE 03:50:48 34° SSE 03:56:13 10° ESE
Cosmos 1437 3.6 03:48:55 10° N 03:51:44 51° NE 03:51:44 51° NE
Cosmos 1953 2.4 03:52:39 67° NW 03:52:39 67° NW 03:56:25 10° N
Cosmos 1842 Rocket 4.2 03:52:27 38° SE 03:53:48 53° E 03:58:10 10° NNE
Cosmos 1980 Rocket 2.6 03:54:48 42° W 03:55:49 47° WNW 04:01:17 10° N
Cosmos 2360 Rocket 4.2 03:52:33 10° SSE 03:56:42 22° E 04:00:52 10° NE
Nadezhda 4 Rocket 4.3 03:53:15 10° NNW 03:59:07 45° W 04:00:11 41° WSW
Cosmos 372 Rocket 4.5 03:55:39 10° N 04:00:41 57° ENE 04:05:41 10° SSE
Cosmos 2322 Rocket 2.1 04:07:27 39° SSW 04:09:39 86° ESE 04:15:18 10° NNE
GPS 2-04 Rocket1 3.1 04:18:53 44° S 04:18:53 44° S 04:22:15 10° SE
SL-16 R/B 2.5 04:15:33 26° S 04:19:02 58° WSW 04:25:07 10° NNW
USA 81 3.9 04:17:05 31° SSW 04:19:39 79° W 04:24:57 10° N
Meteor 1-21 Rocket 4.3 04:15:32 10° NNW 04:21:25 66° W 04:25:23 21° S
Cosmos 1655 Rocket 4.0 04:16:37 10° N 04:23:03 81° W 04:29:09 11° S
ERS-2 4.4 04:24:29 10° NW 04:26:01 13° WNW 04:26:01 13° WNW
Cosmos 1125 Rocket 3.8 04:22:36 10° NNW 04:27:30 43° WSW 04:29:32 30° SSW
Cosmos 2026 Rocket 4.0 04:23:30 10° NNW 04:29:44 66° W 04:34:58 15° S
Cosmos 1470 2.7 04:32:14 37° SSW 04:33:38 65° W 04:37:35 10° N
DELTA 2 R/B (1) 3.5 04:34:21 28° WSW 04:37:23 81° SSE 04:42:59 10° ENE
RESURS DK-1 2.4 04:33:57 10° NNW 04:37:58 51° WSW 04:41:20 14° S
Cosmos 540 Rocket 4.3 04:36:19 26° WSW 04:38:16 35° WNW 04:43:01 10° N
Cosmos 1500 Rocket 3.7 04:35:42 10° NNW 04:39:56 51° W 04:42:20 24° SSW
Cosmos 2058 4.1 04:38:12 10° N 04:42:15 43° E 04:46:15 10° SSE
MOZ.5/SAFIR/RUBIN 5/SL-8 3.9 04:39:29 10° SSE 04:44:11 79° ENE 04:48:52 10° N
SL-16 R/B 2.5 04:42:19 24° SW 04:45:29 50° WNW 04:51:01 10° NNE
Cosmos 1743 Rocket 4.5 04:42:23 10° NNW 04:46:08 29° W 04:47:15 25° WSW
Cosmos 1544 4.3 04:47:09 23° W 04:47:37 24° WNW 04:50:39 10° NNW
ARIANE 5 R/B 3.9 04:44:16 10° NNW 04:48:11 22° WNW 04:50:13 18° W
ADEOS II 3.8 04:43:35 10° NE 04:48:13 31° E 04:52:48 10° SSE
Cosmos 2221 2.7 04:44:41 12° S 04:48:38 74° E 04:52:57 10° N
IRS-1C Rocket 4.1 04:43:32 10° N 04:48:46 71° WNW 04:52:59 16° SSW
PSLV R/B 3.8 04:48:12 10° N 04:51:57 59° WNW 04:54:12 22° SSW
Cosmos 2263 Rocket 2.5 04:49:10 10° NNW 04:54:45 71° ENE 05:00:16 10° SSE
CZ-2D R/B 3.3 04:51:34 10° NNW 04:56:02 27° WNW 04:58:52 17° WSW
COSMOS 2428 4.2 04:54:27 10° SSE 04:59:31 35° ESE 05:04:36 10° NE
Cosmos 1733 3.9 04:58:44 22° SW 05:00:36 35° W 05:04:08 10° NNW
UNKNOWN OBJECT B 4.3 04:59:58 10° NNW 05:02:49 20° WNW 05:04:14 16° W
Cosmos 2228 Rocket 4.5 05:01:19 10° SSE 05:05:30 40° E 05:09:44 10° NNE
GEOS 3 Rocket 3.6 05:00:38 10° SSE 05:05:46 59° WSW 05:10:53 10° NW
Cosmos 2322 3.7 05:01:40 10° SSW 05:07:20 89° ESE 05:13:05 10° NNE
Lacrosse 5 rocket 4.1 05:05:33 10° N 05:08:14 19° NE 05:10:56 10° E
Okean O Rocket 2.1 05:04:11 10° N 05:08:20 41° WNW 05:11:50 14° SW
CZ-3 R/B 3.5 04:41:10 14° WSW 05:08:27 56° S 05:15:51 10° ESE
Cosmos 1680 Rocket 4.0 05:03:30 10° S 05:08:37 61° ESE 05:13:47 10° NNE
CZ-4B R/B 3.3 05:04:09 10° N 05:09:34 63° WNW 05:14:53 10° SSW
Delta 2 Rocket 3.8 05:07:32 18° SW 05:09:46 37° SSE 05:13:21 10° E
Tiangong 1 3.5 05:14:25 10° S 05:16:17 15° SE 05:18:10 10° ESE
Cosmos 1461 4.4 05:15:26 10° WNW 05:17:45 15° WSW 05:19:02 13° SW
Aureole 3 4.1 05:13:50 10° N 05:18:39 78° W 05:24:51 10° S
PSLV R/B 3.6 05:16:06 10° NNE 05:20:22 81° ESE 05:24:40 10° S
Thor Agena Rocket 3.5 05:16:38 10° S 05:21:36 60° WSW 05:26:36 10° NNW
CZ-2C R/B 4.4 05:19:24 10° SSW 05:23:38 34° W 05:27:51 10° NNW
Resurs 1-4 Rocket 4.0 05:21:15 10° NNW 05:23:52 14° WNW 05:26:30 10° W
ARGOS Delta rocket 4.3 05:19:25 10° N 05:24:09 44° WNW 05:28:35 10° SW
OTV 4 2.6 05:22:39 10° SSW 05:24:42 17° SSE 05:26:43 10° ESE
CZ-4B R/B 3.4 05:21:47 10° N 05:25:17 35° WNW 05:28:39 10° SW
Cosmos 923 Rocket 4.0 05:22:15 10° SSW 05:27:25 66° WNW 05:32:37 10° NNE
Cosmos 405 4.4 05:24:27 10° SSE 05:27:51 41° E 05:31:16 10° NNE
Cosmos 1674 4.5 05:27:04 10° NW 05:29:06 14° W 05:31:07 10° WSW
Cosmos 773 Rocket 4.5 05:28:26 10° SW 05:33:20 43° WNW 05:38:17 10° N
Cosmos 921 Rocket 3.2 05:30:30 10° NNW 05:35:02 83° ENE 05:39:32 10° SSE
Cosmos 1346 3.6 05:32:19 10° NNW 05:35:09 37° W 05:37:58 10° SSW
Alouette 2 Rocket 3.6 05:31:49 10° NNW 05:35:33 63° W 05:40:32 10° S
Cosmos 2360 Rocket 2.7 05:34:56 10° SW 05:40:18 45° WNW 05:45:43 10° N
Cosmos 1805 Rocket 4.0 05:37:21 10° NNW 05:41:26 40° W 05:45:30 10° SSW
Meteor PRIRODA 3.6 05:38:30 10° N 05:42:11 76° WNW 05:45:51 10° SSW
Cosmos 2151 4.4 05:41:58 10° NW 05:45:02 19° W 05:48:04 10° SW
ADEOS Rocket 3.4 05:41:36 10° N 05:48:21 78° WNW 05:55:47 10° SSW
BREEZE-M DEB (TANK) 3.8 05:35:51 10° SW 05:48:28 59° NW 05:52:11 10° NE
